Home   Weather   Hanoi   Past weeks

Flag for Vietnam Past Weather in Hanoi, Vietnam — Yesterday and Last 2 Weeks

Now
93 °F

Sunny.


Feels Like: 96 °F
Forecast: 79 / 90 °F
Wind: 12 mph from North

Location: Ha Noi Airport

Current Time: Sep 29, 2016 at 12:12:11 PM

Latest Report: Sep 29, 2016 at 11:30 AM


Visibility: 10 mi

Pressure: 29.74 "Hg

Humidity: 41%

Dew Point: 66 °F

Location of HanoiLocation

Past Weather in Hanoi — Graph

°F

Hanoi Temperature Yesterday

Maximum temperature yesterday: 97 °F (at 1:30 PM)
Minimum temperature yesterday: 81 °F (at 4:30 AM)
Average temperature yesterday: 88 °F

High & Low Weather Summary for the Past Weeks

 TemperatureHumidityPressure
High97 °F (Sep 28, 1:30 PM)100% (Sep 15, 12:00 AM)30.01 "Hg (Sep 15, 12:00 AM)
Low75 °F (Sep 22, 5:00 AM)38% (Sep 21, 2:00 PM)29.62 "Hg (Sep 27, 3:30 PM)
Average85 °F74%29.78 "Hg
* Reported Sep 14 11:00 AM — Sep 29 11:00 AM, Hanoi, Weather by CustomWeather, © 2016

Note: Actual official high and low records may vary slightly from our data, if they occured in-between our weather recording intervals... More about our weather records

Advertising

Hanoi Weather History for the Previous 24 Hours

Scroll right to see more
 ConditionsComfort  
Time TempWeatherWind HumidityBarometerVisibility
11:00 AM
Thu, Sep 29
93 °FPassing clouds.12 mph41%29.74 "HgN/A
10:30 AM93 °FPassing clouds.8 mph41%29.77 "HgN/A
10:00 AM91 °FPassing clouds.8 mph46%29.77 "HgN/A
9:30 AM90 °FSunny.7 mph49%29.77 "Hg10 mi
9:00 AM90 °FSunny.8 mph46%29.77 "Hg10 mi
8:30 AM88 °FSunny.7 mph55%29.77 "Hg10 mi
8:00 AM88 °FClear.No wind59%29.77 "Hg6 mi
7:30 AM84 °FClear.No wind70%29.77 "Hg5 mi
7:00 AM84 °FClear.No wind79%29.74 "Hg4 mi
6:30 AM82 °FClear.1 mph79%29.74 "Hg5 mi
6:00 AM81 °FClear.2 mph84%29.71 "Hg5 mi
5:30 AM82 °FClear.2 mph79%29.71 "Hg5 mi
5:00 AM81 °FClear.3 mph84%29.71 "Hg4 mi
4:30 AM82 °FFog.3 mph94%29.68 "Hg2 mi
4:00 AM82 °FFog.3 mph94%29.68 "Hg2 mi
3:30 AM81 °FFog.3 mph100%29.68 "Hg2 mi
3:00 AM82 °FFog.5 mph94%29.68 "Hg3 mi
2:30 AM82 °FFog.5 mph94%29.68 "Hg3 mi
2:00 AM82 °FFog.5 mph94%29.68 "Hg2 mi
1:30 AM82 °FFog.5 mph94%29.71 "Hg3 mi
1:00 AM84 °FClear.6 mph84%29.71 "Hg4 mi
12:30 AM84 °FClear.6 mph79%29.71 "Hg4 mi
12:00 AM84 °FClear.5 mph79%29.71 "Hg4 mi
11:30 PM
Wed, Sep 28
86 °FClear.5 mph75%29.71 "Hg5 mi
11:00 PM84 °FClear.3 mph89%29.71 "Hg4 mi
10:30 PM84 °FClear.3 mph89%29.71 "Hg4 mi
10:00 PM86 °FClear.2 mph84%29.71 "Hg4 mi
9:30 PM86 °FClear.3 mph84%29.71 "Hg4 mi
9:00 PM86 °FClear.5 mph79%29.71 "Hg3 mi
8:30 PM86 °FClear.6 mph84%29.71 "Hg2 mi
8:00 PM86 °FClear.6 mph84%29.68 "Hg3 mi
7:30 PM88 °FClear.5 mph70%29.68 "Hg3 mi
7:00 PM88 °FClear.6 mph66%29.65 "Hg2 mi
6:30 PM90 °FClear.5 mph63%29.65 "Hg3 mi
6:00 PM90 °FClear.6 mph63%29.65 "Hg2 mi
5:30 PM91 °FPassing clouds.7 mph59%29.62 "Hg2 mi
5:00 PM91 °FPassing clouds.7 mph63%29.62 "Hg4 mi
4:30 PM93 °FScattered clouds.9 mph56%29.62 "Hg4 mi
4:00 PM93 °FScattered clouds.9 mph56%29.62 "HgN/A
3:30 PM93 °FScattered clouds.10 mph59%29.62 "HgN/A
3:00 PM95 °FScattered clouds.13 mph53%29.62 "HgN/A
2:30 PM97 °FScattered clouds.8 mph47%29.62 "HgN/A
2:00 PM97 °FScattered clouds.12 mph50%29.65 "HgN/A
1:30 PM97 °FScattered clouds.9 mph50%29.65 "HgN/A
1:00 PM95 °FScattered clouds.9 mph53%29.68 "HgN/A
12:30 PM95 °FScattered clouds.9 mph50%29.68 "HgN/A
12:00 PM95 °FPassing clouds.9 mph50%29.71 "HgN/A
Weather by CustomWeather, © 2016

See weather overviewHow to use our weather pages